Weather History for KPGA - February, 2012

Change the Weather History Date:

Tuesday, February 7, 2012

  Actual Average Record
Temperature  
Mean Temperature 39 °F -  
Max Temperature 48 °F 45 °F 64 °F (2015)
Min Temperature 30 °F 28 °F 7 °F (1989)
Degree Days  
Heating Degree Days 26    
Moisture  
Dew Point 20 °F    
Average Humidity 47    
Maximum Humidity 60    
Minimum Humidity 32    
Precipitation  
Precipitation 0.00 in - - ()
Sea Level Pressure  
Sea Level Pressure 30.20 in    
Wind  
Wind Speed 2 mph (NNW)    
Max Wind Speed 9 mph    
Max Gust Speed -    
Visibility 8 miles    
Events      
Averages and records for this station are not official NWS values.
T = Trace of Precipitation, MM = Missing Value Source: NWS Daily Summary

Daily Weather History Graph

Daily Weather History Graph

Search for Another Location

Airport or City:

Trip Planner

Search our weather history database for the weather conditions in past years. The results will help you decide how hot, cold, wet, or windy it might be!

Date:

Astronomy

Feb. 07, 2012 Rise Set
Actual Time 7:23 AM MST 5:57 PM MST
Civil Twilight 6:56 AM MST 6:24 PM MST
Nautical Twilight 6:25 AM MST 6:54 PM MST
Astronomical Twilight 5:55 AM MST 7:25 PM MST
Moon 6:10 PM MST 6:55 AM MST
Length of Visible Light 11h 27m
Length of Day
10h 33m
Full, 100% of the Moon is Illuminated
Feb 7
Full
Feb 7
Full
Feb 14
Last Quarter
Feb 21
New
Feb 29
First Quarter

Hourly Weather History & Observations

Time (MST) Temp. Windchill Dew Point Humidity Pressure Visibility Wind Dir Wind Speed Gust Speed Precip Events Conditions
12:53 AM 34.0 °F 31.0 °F 19.0 °F 54% 30.17 in 10.0 mi SE 3.5 mph - N/A   Clear
1:53 AM 34.0 °F - 19.0 °F 54% 30.17 in 7.0 mi Calm Calm - N/A   Clear
2:53 AM 32.0 °F - 18.0 °F 56% 30.18 in 8.0 mi Calm Calm - N/A   Clear
3:53 AM 33.1 °F - 19.0 °F 56% 30.18 in 10.0 mi Calm Calm - N/A   Clear
4:53 AM 32.0 °F - 18.0 °F 56% 30.19 in 9.0 mi Calm Calm - N/A   Clear
5:53 AM 30.9 °F - 18.0 °F 59% 30.21 in 10.0 mi Calm Calm - N/A   Clear
6:53 AM 32.0 °F 27.5 °F 18.0 °F 56% 30.22 in 10.0 mi SW 4.6 mph - N/A   Clear
7:38 AM 32.0 °F 27.5 °F 19.4 °F 60% 30.23 in 1.8 mi West 4.6 mph - N/A   Haze
7:51 AM 32.0 °F 28.7 °F 19.4 °F 60% 30.23 in 3.0 mi West 3.5 mph - N/A   Haze
7:53 AM 32.0 °F 28.7 °F 19.0 °F 59% 30.24 in 4.0 mi West 3.5 mph - N/A   Haze
8:53 AM 37.0 °F - 19.9 °F 50% 30.26 in 10.0 mi Calm Calm - N/A   Clear
9:53 AM 37.9 °F - 19.0 °F 47% 30.26 in 10.0 mi Calm Calm - N/A   Clear
10:53 AM 41.0 °F 39.0 °F 21.0 °F 45% 30.26 in 10.0 mi North 3.5 mph - N/A   Clear
11:53 AM 44.1 °F 41.5 °F 21.0 °F 40% 30.24 in 10.0 mi East 4.6 mph - N/A   Clear
12:53 PM 46.9 °F - 21.0 °F 36% 30.20 in 10.0 mi NE 9.2 mph - N/A   Clear
1:53 PM 48.0 °F - 19.9 °F 33% 30.17 in 10.0 mi North 6.9 mph - N/A   Clear
2:53 PM 48.0 °F - 19.0 °F 32% 30.16 in 10.0 mi North 5.8 mph - N/A   Clear
3:53 PM 48.0 °F - 19.0 °F 32% 30.14 in 10.0 mi NNE 5.8 mph - N/A   Clear
4:53 PM 48.0 °F - 21.0 °F 34% 30.15 in 10.0 mi NNE 6.9 mph - N/A   Clear
5:53 PM 46.0 °F 44.8 °F 21.0 °F 37% 30.16 in 10.0 mi NNE 3.5 mph - N/A   Clear
6:53 PM 46.0 °F - 21.0 °F 37% 30.16 in 10.0 mi Calm Calm - N/A   Clear
7:53 PM 43.0 °F - 19.9 °F 40% 30.18 in 10.0 mi Calm Calm - N/A   Clear
8:53 PM 41.0 °F - 21.0 °F 45% 30.19 in 10.0 mi Calm Calm - N/A   Clear
9:18 PM 41.0 °F - 21.2 °F 45% 30.20 in 2.5 mi Calm Calm - N/A   Haze
9:37 PM 41.0 °F - 21.2 °F 45% 30.20 in 5.0 mi Calm Calm - N/A   Haze
9:53 PM 43.0 °F - 21.0 °F 42% 30.18 in 10.0 mi Calm Calm - N/A   Clear
10:53 PM 42.1 °F - 21.9 °F 45% 30.18 in 9.0 mi Calm Calm - N/A   Partly Cloudy
11:53 PM 39.9 °F - 21.9 °F 49% 30.19 in 8.0 mi Calm Calm - N/A   Clear